User: anonymous   Login
Location: Hickory_CSC
(35.7330°N, 81.3330°W)
Time: 21:25:19
(UTC-04:00)
Language:

Cosmos 1356 Rocket - Orbit

View from above orbital plane
View from above orbital plane
View from above satellite
View from above satellite

Ground track
Ground track

The orbit data is extracted from the following two-line orbital elements,

1 13154U 82039B   15091.41544961  .00003134  00000-0  26451-3 0  9998
2 13154 081.1832 061.8408 0042251 041.0952 319.3435 14.97170277782810
Epoch (UTC): 01 April 2015 09:58:14
Eccentricity: 0.0042251
inclination: 81.1832°
perigee height: 546 km
apogee height: 605 km
right ascension of ascending node: 61.8408°
argument of perigee: 41.0952°
revolutions per day: 14.97170277
mean anomaly at epoch: 319.3435°
orbit number at epoch: 78281

The dashed part of the orbit path shows where the satellite is in the earth's shadow,  

DLR